CW5988 Weather Reports


Display with metric or nautical units.
time (UTC)temp
F
wind
direction
speed
MPH
gust
MPH
rain 1hr
in
rain 24hr
in
rain mn
in
humidity
%
barometer
mb
20260507180419 56 291 4.0 10.0 0.00 0.00 0.00 82 1019.8
20260507175927 56 184 5.0 10.0 0.00 0.00 0.00 82 1019.8
20260507175435 56 273 5.0 10.0 0.00 0.00 0.00 82 1019.8
20260507174922 56 303 8.0 12.0 0.00 0.00 0.00 82 1019.7
20260507174429 56 313 8.0 13.0 0.00 0.00 0.00 82 1019.7
20260507173934 56 263 4.0 13.0 0.00 0.00 0.00 82 1019.7
20260507173435 56 261 3.0 11.0 0.00 0.00 0.00 82 1019.7
20260507172919 56 276 4.0 10.0 0.00 0.00 0.00 82 1019.7
20260507172424 56 251 7.0 10.0 0.00 0.00 0.00 82 1019.7
20260507171933 56 205 3.0 9.0 0.00 0.00 0.00 83 1019.7
20260507171418 55 220 6.0 11.0 0.00 0.00 0.00 83 1019.7
20260507170925 55 205 4.0 10.0 0.00 0.00 0.00 83 1019.6
20260507170500 55 231 6.0 10.0 0.00 0.00 0.00 83 1019.6
20260507165939 55 235 4.0 9.0 0.00 0.00 0.00 83 1019.7
20260507165456 55 270 5.0 7.0 0.00 0.00 0.00 83 1019.6
20260507164923 55 34 2.0 8.0 0.00 0.00 0.00 84 1019.6
20260507164429 55 232 3.0 8.0 0.00 0.00 0.00 84 1019.6
20260507164004 55 268 4.0 7.0 0.00 0.00 0.00 84 1019.6
20260507163457 55 277 3.0 10.0 0.00 0.00 0.00 84 1019.6
20260507162941 54 252 4.0 10.0 0.00 0.00 0.00 85 1019.5
20260507162451 54 292 3.0 8.0 0.00 0.00 0.00 85 1019.5
20260507161936 54 320 3.0 10.0 0.00 0.00 0.00 85 1019.6
20260507161423 54 323 6.0 10.0 0.00 0.00 0.00 84 1019.6
20260507160950 54 337 6.0 11.0 0.00 0.00 0.00 84 1019.6
20260507160436 54 268 5.0 11.0 0.00 0.00 0.00 85 1019.5
20260507155921 54 302 4.0 8.0 0.00 0.00 0.00 85 1019.5
20260507155428 54 256 3.0 8.0 0.00 0.00 0.00 85 1019.5
20260507154931 54 196 4.0 9.0 0.00 0.00 0.00 85 1019.4
20260507154436 54 233 4.0 9.0 0.00 0.00 0.00 85 1019.5
20260507153923 54 360 3.0 7.0 0.00 0.00 0.00 86 1019.5
20260507153500 54 201 2.0 6.0 0.00 0.00 0.00 86 1019.5
20260507152955 54 268 2.0 6.0 0.00 0.00 0.00 86 1019.6
20260507152421 54 261 3.0 7.0 0.00 0.00 0.00 86 1019.5
20260507151931 54 254 4.0 6.0 0.00 0.00 0.00 86 1019.5
20260507151432 53 14 2.0 9.0 0.00 0.00 0.00 86 1019.5
20260507150936 53 265 4.0 9.0 0.00 0.00 0.00 86 1019.4
20260507150423 53 263 5.0 10.0 0.00 0.00 0.00 86 1019.5
20260507145929 53 263 4.0 7.0 0.00 0.00 0.00 86 1019.5
20260507145435 53 151 2.0 6.0 0.00 0.00 0.00 86 1019.5
20260507144921 53 211 3.0 6.0 0.00 0.00 0.00 86 1019.4
20260507144449 53 290 2.0 5.0 0.00 0.00 0.00 87 1019.4
20260507143929 53 327 2.0 6.0 0.00 0.00 0.00 86 1019.4
20260507143437 53 45 1.0 6.0 0.00 0.00 0.00 86 1019.4
20260507142921 53 295 2.0 8.0 0.00 0.00 0.00 86 1019.4
20260507142458 53 294 3.0 8.0 0.00 0.00 0.00 86 1019.4
20260507141942 53 313 1.0 7.0 0.00 0.00 0.00 86 1019.3
20260507141446 53 177 1.0 13.0 0.00 0.00 0.00 86 1019.3
20260507140957 53 254 5.0 9.0 0.00 0.00 0.00 86 1019.3
20260507140423 53 240 4.0 10.0 0.00 0.00 0.00 87 1019.2
20260507135930 53 314 4.0 10.0 0.00 0.00 0.00 87 1019.2
20260507135437 53 300 4.0 7.0 0.00 0.00 0.00 87 1019.1
20260507134923 53 262 3.0 6.0 0.00 0.00 0.00 87 1019.0
20260507134431 53 257 2.0 6.0 0.00 0.00 0.00 87 1019.0
20260507133939 53 159 2.0 11.0 0.00 0.00 0.00 87 1019.0
20260507133442 53 294 6.0 11.0 0.00 0.00 0.00 86 1019.0
20260507132929 53 316 4.0 5.0 0.00 0.00 0.00 86 1019.0
20260507132435 53 313 2.0 8.0 0.00 0.00 0.00 86 1019.0
20260507131944 53 347 3.0 11.0 0.00 0.00 0.00 86 1018.9
20260507131419 53 222 5.0 11.0 0.00 0.00 0.00 86 1018.9
20260507130926 53 1 3.0 11.0 0.00 0.00 0.00 86 1018.8
20260507130434 53 275 4.0 11.0 0.00 0.00 0.00 86 1018.8
20260507125939 53 270 4.0 11.0 0.00 0.00 0.00 86 1018.8
20260507125426 53 285 5.0 10.0 0.00 0.00 0.00 86 1018.7
20260507124936 53 289 3.0 7.0 0.00 0.00 0.00 86 1018.8
20260507124456 53 258 2.0 7.0 0.00 0.00 0.00 86 1018.8
20260507123924 53 360 3.0 8.0 0.00 0.00 0.00 86 1018.8
20260507123453 53 282 3.0 8.0 0.00 0.00 0.00 86 1018.8
20260507122921 53 245 4.0 12.0 0.00 0.00 0.00 86 1018.7
20260507122423 53 308 7.0 12.0 0.00 0.00 0.00 86 1018.8
20260507121933 53 289 4.0 9.0 0.00 0.00 0.00 86 1018.8
20260507121422 53 278 5.0 9.0 0.00 0.00 0.00 86 1018.7
20260507120931 53 317 5.0 8.0 0.00 0.00 0.00 86 1018.7
20260507120438 53 268 4.0 8.0 0.00 0.00 0.00 86 1018.7
20260507115924 53 275 4.0 8.0 0.00 0.00 0.00 86 1018.7
20260507115431 53 244 4.0 11.0 0.00 0.00 0.00 86 1018.8
20260507114939 53 290 4.0 12.0 0.00 0.00 0.00 86 1018.9
20260507114421 54 278 7.0 12.0 0.00 0.00 0.00 86 1018.9
20260507113928 54 259 2.0 9.0 0.00 0.00 0.00 86 1018.9
20260507113434 54 359 3.0 11.0 0.00 0.00 0.00 86 1018.9
20260507112949 54 276 5.0 11.0 0.00 0.00 0.00 86 1018.9
20260507112435 54 273 2.0 11.0 0.00 0.00 0.00 86 1019.0
20260507111922 54 275 3.0 7.0 0.00 0.00 0.00 86 1019.0
20260507111453 54 342 2.0 6.0 0.00 0.00 0.00 86 1018.9
20260507110936 54 268 1.0 5.0 0.00 0.00 0.00 86 1019.0
20260507110420 54 88 2.0 7.0 0.00 0.00 0.00 86 1018.9
20260507105926 54 222 3.0 7.0 0.00 0.00 0.00 86 1019.0
20260507105434 54 343 4.0 10.0 0.00 0.00 0.00 86 1019.0
20260507104941 54 1 4.0 10.0 0.00 0.00 0.00 86 1018.9
20260507104449 54 359 4.0 10.0 0.00 0.00 0.00 86 1018.9
20260507103959 54 228 4.0 10.0 0.00 0.00 0.00 86 1019.0
20260507103446 54 222 4.0 9.0 0.00 0.00 0.00 86 1019.0
20260507102930 54 322 2.0 11.0 0.00 0.00 0.00 86 1019.1
20260507102437 54 270 3.0 11.0 0.00 0.00 0.00 86 1019.1
20260507101946 54 316 3.0 8.0 0.00 0.00 0.00 86 1019.1
20260507101453 53 27 3.0 8.0 0.00 0.00 0.00 86 1019.1
20260507100935 53 305 2.0 6.0 0.00 0.00 0.00 86 1019.0
20260507100451 53 107 2.0 9.0 0.00 0.00 0.00 86 1019.0
20260507095936 53 245 5.0 9.0 0.00 0.00 0.00 86 1018.9
20260507095421 54 268 4.0 7.0 0.00 0.00 0.00 86 1018.9
20260507094927 53 285 3.0 7.0 0.00 0.00 0.00 86 1018.9
20260507094434 53 292 1.0 11.0 0.00 0.00 0.00 86 1019.0
20260507093921 53 178 5.0 11.0 0.00 0.00 0.00 86 1018.9
20260507093444 54 272 5.0 13.0 0.00 0.00 0.00 86 1018.9
20260507092959 54 287 4.0 13.0 0.00 0.00 0.00 86 1018.9
20260507092425 54 294 4.0 14.0 0.00 0.00 0.00 86 1018.9
20260507091934 54 273 6.0 17.0 0.00 0.00 0.00 86 1018.8
20260507091418 54 271 7.0 17.0 0.00 0.00 0.00 86 1018.9
20260507090925 54 286 5.0 10.0 0.00 0.00 0.00 86 1019.0
20260507090432 54 224 6.0 15.0 0.00 0.00 0.00 86 1018.9
20260507085936 54 285 8.0 15.0 0.00 0.00 0.00 86 1019.0
20260507085439 54 313 4.0 14.0 0.00 0.00 0.00 86 1018.9
20260507084955 54 264 4.0 12.0 0.00 0.00 0.00 86 1019.0
20260507084437 54 232 5.0 10.0 0.00 0.00 0.00 86 1019.0
20260507083924 54 290 5.0 13.0 0.00 0.00 0.00 86 1019.2
20260507083429 54 275 6.0 13.0 0.00 0.00 0.00 86 1019.2
20260507082933 54 292 4.0 13.0 0.00 0.00 0.00 86 1019.3
20260507082434 54 195 6.0 13.0 0.00 0.00 0.00 86 1019.4
20260507081919 54 313 4.0 7.0 0.00 0.00 0.00 86 1019.5
20260507081428 54 34 1.0 5.0 0.00 0.00 0.00 86 1019.5
20260507080937 54 268 2.0 6.0 0.00 0.00 0.00 86 1019.5
20260507080422 54 360 3.0 8.0 0.00 0.00 0.00 86 1019.5
20260507075949 54 177 1.0 8.0 0.00 0.00 0.00 86 1019.5
20260507075430 54 216 5.0 8.0 0.00 0.00 0.00 86 1019.4
20260507074933 54 292 5.0 8.0 0.00 0.00 0.00 86 1019.5
20260507074420 54 298 4.0 8.0 0.00 0.00 0.00 86 1019.5
20260507073927 54 116 1.0 6.0 0.00 0.00 0.00 86 1019.5
20260507073434 54 301 2.0 6.0 0.00 0.00 0.00 86 1019.4
20260507072922 54 151 3.0 7.0 0.00 0.00 0.00 86 1019.5
20260507072428 54 45 2.0 7.0 0.00 0.00 0.00 87 1019.5
20260507071935 54 237 3.0 7.0 0.00 0.00 0.00 87 1019.5
20260507071420 54 215 2.0 9.0 0.00 0.00 0.00 87 1019.4
20260507070922 54 282 4.0 8.0 0.00 0.00 0.00 86 1019.4
20260507070429 54 278 3.0 15.0 0.00 0.00 0.00 86 1019.4
20260507065938 54 360 2.0 15.0 0.00 0.00 0.00 86 1019.4
20260507065425 54 257 5.0 10.0 0.00 0.00 0.00 86 1019.4
20260507064934 54 138 4.0 15.0 0.00 0.00 0.00 87 1019.3
20260507064420 54 230 6.0 19.0 0.00 0.00 0.00 87 1019.3
20260507063928 54 257 9.0 19.0 0.00 0.00 0.00 87 1019.3
20260507063431 54 247 7.0 14.0 0.00 0.00 0.00 87 1019.3
20260507062937 54 196 6.0 20.0 0.00 0.00 0.00 87 1019.3
20260507062453 54 284 11.0 20.0 0.00 0.00 0.00 87 1019.1
20260507061920 54 296 8.0 17.0 0.00 0.00 0.00 87 1019.2
20260507061445 54 268 10.0 20.0 0.00 0.00 0.00 87 1019.1
20260507060952 54 264 13.0 22.0 0.00 0.00 0.00 86 1019.2
20260507060435 54 257 8.0 24.0 0.00 0.00 0.00 86 1019.2
20260507055921 54 268 14.0 24.0 0.00 0.00 0.00 86 1019.0
20260507055426 54 264 15.0 24.0 0.00 0.00 0.00 86 1019.0
20260507054933 54 295 9.0 19.0 0.00 0.00 0.00 86 1019.0
20260507054421 55 270 11.0 20.0 0.00 0.00 0.00 86 1019.0
20260507053929 55 268 12.0 21.0 0.00 0.00 0.00 86 1019.0
20260507053438 55 275 12.0 21.0 0.00 0.00 0.00 86 1019.1
20260507052925 55 273 12.0 20.0 0.00 0.00 0.00 86 1019.2
20260507052429 55 273 10.0 21.0 0.00 0.00 0.00 86 1019.1
20260507051936 55 256 10.0 19.0 0.00 0.00 0.00 86 1019.2
20260507051423 55 285 11.0 22.0 0.00 0.00 0.00 86 1019.2
20260507050959 55 268 10.0 22.0 0.00 0.00 0.00 86 1019.2
20260507050425 55 287 11.0 27.0 0.00 0.00 0.00 86 1019.1
20260507045930 55 265 15.0 27.0 0.00 0.00 0.00 86 1019.2
20260507045438 55 307 15.0 24.0 0.00 0.00 0.00 86 1019.2
20260507044923 55 280 14.0 27.0 0.00 0.00 0.00 86 1019.1
20260507044451 55 278 18.0 27.0 0.00 0.00 0.00 86 1019.2
20260507043936 55 282 18.0 28.0 0.00 0.00 0.00 86 1019.0
20260507043422 55 275 19.0 28.0 0.00 0.00 0.00 86 1019.0
20260507042930 55 256 16.0 27.0 0.00 0.00 0.00 85 1019.0
20260507042438 55 282 14.0 26.0 0.00 0.00 0.00 85 1018.8
20260507041925 55 256 14.0 31.0 0.00 0.00 0.00 85 1018.8
20260507041425 55 252 17.0 31.0 0.00 0.00 0.00 85 1018.8
20260507040933 55 283 20.0 27.0 0.00 0.00 0.00 85 1018.7
20260507040436 55 273 14.0 29.0 0.00 0.00 0.00 85 1018.7
20260507035950 55 233 15.0 27.0 0.00 0.00 0.00 85 1018.8
20260507035436 55 297 16.0 28.0 0.00 0.00 0.00 85 1018.8
20260507034943 55 283 17.0 28.0 0.00 0.00 0.00 85 1018.8
20260507034445 55 270 15.0 27.0 0.00 0.00 0.00 85 1018.8
20260507033929 55 275 16.0 27.0 0.00 0.00 0.00 85 1018.7
20260507033433 55 275 17.0 28.0 0.00 0.00 0.00 85 1018.6
20260507032938 55 301 18.0 28.0 0.00 0.00 0.00 85 1018.4
20260507032425 56 266 14.0 28.0 0.00 0.00 0.00 85 1018.4
20260507031933 56 273 17.0 31.0 0.00 0.00 0.00 84 1018.3
20260507031419 56 282 18.0 31.0 0.00 0.00 0.00 84 1018.3
20260507030926 56 272 19.0 28.0 0.00 0.00 0.00 84 1018.2
20260507030427 56 268 18.0 29.0 0.00 0.00 0.00 84 1018.3
20260507025933 56 283 21.0 29.0 0.00 0.00 0.00 84 1018.3
20260507025420 56 282 18.0 29.0 0.00 0.00 0.00 83 1018.3
20260507024928 56 290 17.0 30.0 0.00 0.00 0.00 83 1018.3
20260507024435 56 263 19.0 30.0 0.00 0.00 0.00 83 1018.1
20260507023922 56 259 17.0 30.0 0.00 0.00 0.00 83 1018.1
20260507023429 56 251 15.0 30.0 0.00 0.00 0.00 83 1018.2
20260507022934 57 297 15.0 28.0 0.00 0.00 0.00 82 1018.0
20260507022440 57 289 15.0 34.0 0.00 0.00 0.00 82 1018.0
20260507021955 57 290 18.0 34.0 0.00 0.00 0.00 82 1018.2
20260507021420 57 271 17.0 28.0 0.00 0.00 0.00 82 1018.1
20260507020927 57 278 19.0 28.0 0.00 0.00 0.00 81 1018.1
20260507020435 57 294 15.0 30.0 0.00 0.00 0.00 81 1018.1
20260507015920 58 280 17.0 30.0 0.00 0.00 0.00 80 1018.1
20260507015426 58 280 13.0 27.0 0.00 0.00 0.00 80 1018.1
20260507014928 58 278 18.0 27.0 0.00 0.00 0.00 80 1018.1
20260507014436 58 280 13.0 28.0 0.00 0.00 0.00 80 1018.0
20260507013951 58 278 17.0 27.0 0.00 0.00 0.00 79 1018.1
20260507013437 59 232 15.0 29.0 0.00 0.00 0.00 79 1018.0
20260507012939 59 263 19.0 31.0 0.00 0.00 0.00 79 1018.0
20260507012425 59 256 17.0 31.0 0.00 0.00 0.00 79 1017.9
20260507011929 59 282 13.0 28.0 0.00 0.00 0.00 79 1018.2
20260507011436 59 213 14.0 31.0 0.00 0.00 0.00 79 1018.2
20260507010923 59 276 21.0 31.0 0.00 0.00 0.00 78 1018.3
20260507010432 60 265 17.0 26.0 0.00 0.00 0.00 78 1018.3
20260507005938 60 280 15.0 26.0 0.00 0.00 0.00 77 1018.3
20260507005426 60 251 13.0 23.0 0.00 0.00 0.00 78 1018.3
20260507004932 60 280 14.0 27.0 0.00 0.00 0.00 78 1018.3
20260507004420 60 257 17.0 27.0 0.00 0.00 0.00 78 1018.2
20260507003925 60 261 14.0 27.0 0.00 0.00 0.00 78 1018.3
20260507003459 60 285 15.0 26.0 0.00 0.00 0.00 77 1018.3
20260507002925 60 273 14.0 26.0 0.00 0.00 0.00 77 1018.3
20260507002432 60 279 16.0 26.0 0.00 0.00 0.00 77 1018.3
20260507001938 61 297 11.0 23.0 0.00 0.00 0.00 77 1018.3
20260507001456 61 282 11.0 22.0 0.00 0.00 0.00 77 1018.4
20260507000920 61 287 14.0 22.0 0.00 0.00 0.00 77 1018.4
20260507000423 60 280 12.0 24.0 0.00 0.00 0.00 77 1018.4
20260506235927 60 265 16.0 25.0 0.00 0.00 0.00 77 1018.5
20260506235435 60 301 14.0 29.0 0.00 0.00 0.00 78 1018.4
20260506234922 60 278 16.0 29.0 0.00 0.00 0.00 78 1018.5
20260506234458 61 295 17.0 26.0 0.00 0.00 0.00 77 1018.4
20260506233924 60 261 14.0 28.0 0.00 0.00 0.00 78 1018.5
20260506233430 60 264 19.0 29.0 0.00 0.00 0.00 78 1018.7
20260506232933 60 270 19.0 29.0 0.00 0.00 0.00 77 1018.6
20260506232442 61 270 16.0 28.0 0.00 0.00 0.00 77 1018.6
20260506231927 61 295 19.0 28.0 0.00 0.00 0.00 77 1018.6
20260506231435 61 263 19.0 28.0 0.00 0.00 0.00 76 1018.6
20260506230923 61 283 15.0 28.0 0.00 0.00 0.00 76 1018.6
20260506230429 61 280 15.0 28.0 0.00 0.00 0.00 76 1018.8
20260506225933 62 256 14.0 25.0 0.00 0.00 0.00 76 1018.8
20260506225436 61 285 16.0 27.0 0.00 0.00 0.00 77 1018.8
20260506224921 61 238 15.0 31.0 0.00 0.00 0.00 76 1019.0
20260506224449 62 269 15.0 31.0 0.00 0.00 0.00 76 1019.0
20260506223934 62 259 12.0 26.0 0.00 0.00 0.00 77 1019.1
20260506223419 61 289 17.0 28.0 0.00 0.00 0.00 76 1019.1
20260506222925 61 291 11.0 28.0 0.00 0.00 0.00 77 1019.2
20260506222431 61 329 16.0 27.0 0.00 0.00 0.00 76 1019.2
20260506221935 62 268 12.0 27.0 0.00 0.00 0.00 76 1019.3
20260506221450 62 55 12.0 24.0 0.00 0.00 0.00 76 1019.5
20260506220937 62 285 14.0 29.0 0.00 0.00 0.00 76 1019.6
20260506220445 62 301 17.0 29.0 0.00 0.00 0.00 75 1019.6
20260506215951 62 268 16.0 23.0 0.00 0.00 0.00 75 1019.6
20260506215419 63 280 12.0 23.0 0.00 0.00 0.00 75 1019.7
20260506214921 62 283 14.0 28.0 0.00 0.00 0.00 75 1019.8
20260506214427 62 273 13.0 28.0 0.00 0.00 0.00 75 1019.7
20260506213935 62 299 15.0 24.0 0.00 0.00 0.00 74 1019.8
20260506213436 63 258 15.0 24.0 0.00 0.00 0.00 74 1019.8
20260506212922 63 270 12.0 23.0 0.00 0.00 0.00 74 1019.8
20260506212428 63 297 11.0 23.0 0.00 0.00 0.00 74 1019.8
20260506211936 63 282 13.0 22.0 0.00 0.00 0.00 74 1019.8
20260506211439 63 221 14.0 22.0 0.00 0.00 0.00 74 1019.8
20260506210927 64 271 10.0 20.0 0.00 0.00 0.00 74 1019.9
20260506210433 64 264 12.0 19.0 0.00 0.00 0.00 74 1019.9
20260506205919 63 283 10.0 19.0 0.00 0.00 0.00 74 1019.9
20260506205428 63 292 11.0 18.0 0.00 0.00 0.00 74 1019.9
20260506204936 63 292 13.0 19.0 0.00 0.00 0.00 74 1020.1
20260506204422 63 275 13.0 19.0 0.00 0.00 0.00 74 1020.0
20260506203928 63 268 11.0 18.0 0.00 0.00 0.00 74 1020.0
20260506203432 63 237 12.0 19.0 0.00 0.00 0.00 74 1020.0
20260506202934 63 278 13.0 19.0 0.00 0.00 0.00 74 1020.1
20260506202421 63 287 11.0 19.0 0.00 0.00 0.00 74 1020.1
20260506201927 64 261 11.0 17.0 0.00 0.00 0.00 73 1020.2
20260506201433 64 268 9.0 17.0 0.00 0.00 0.00 73 1020.2
20260506200921 64 295 12.0 17.0 0.00 0.00 0.00 73 1020.2
20260506200447 64 280 10.0 16.0 0.00 0.00 0.00 72 1020.3
20260506195927 65 329 10.0 14.0 0.00 0.00 0.00 72 1020.3
20260506195433 65 273 10.0 16.0 0.00 0.00 0.00 72 1020.4
20260506194921 65 307 8.0 16.0 0.00 0.00 0.00 72 1020.4
20260506194426 64 273 9.0 15.0 0.00 0.00 0.00 72 1020.4
20260506193932 64 299 10.0 15.0 0.00 0.00 0.00 71 1020.5
20260506193440 65 280 7.0 15.0 0.00 0.00 0.00 72 1020.4
20260506192956 65 252 7.0 15.0 0.00 0.00 0.00 71 1020.4
20260506192436 65 297 7.0 13.0 0.00 0.00 0.00 72 1020.5
20260506191923 65 257 8.0 13.0 0.00 0.00 0.00 71 1020.6
20260506191429 64 254 5.0 12.0 0.00 0.00 0.00 72 1020.6
20260506190936 64 274 7.0 12.0 0.00 0.00 0.00 72 1020.6
20260506190443 64 275 8.0 12.0 0.00 0.00 0.00 71 1020.6
20260506185920 65 316 7.0 12.0 0.00 0.00 0.00 71 1020.6
20260506185426 65 134 5.0 10.0 0.00 0.00 0.00 72 1020.6
20260506184928 64 251 5.0 12.0 0.00 0.00 0.00 72 1020.6
20260506184436 64 302 7.0 12.0 0.00 0.00 0.00 73 1020.6
20260506183952 63 284 5.0 12.0 0.00 0.00 0.00 73 1020.7
20260506183438 64 280 6.0 12.0 0.00 0.00 0.00 73 1020.7
20260506182923 63 280 5.0 11.0 0.00 0.00 0.00 74 1020.6
20260506182448 63 246 4.0 9.0 0.00 0.00 0.00 74 1020.6
20260506181935 62 297 4.0 9.0 0.00 0.00 0.00 75 1020.6
20260506181437 62 212 4.0 9.0 0.00 0.00 0.00 75 1020.6
20260506180925 62 306 5.0 11.0 0.00 0.00 0.00 74 1020.7